This is the latest recevied weather packets stored in our database for station/object KB1JLI. If no packets are shown the sender has not sent any weather packets the latest 10 day(s).
| Time | Temp. | Humidity | Pressure | Rain* | Wind** | Luminosity | Snow |
|---|---|---|---|---|---|---|---|
| 1777835567 | 11.67° C | 43% | 1005.8 hPa | 0 mm | - | 254 W/m² | - |
| 1777835263 | 11.67° C | 43% | 1005.8 hPa | 0 mm | - | 262 W/m² | - |
| 1777834960 | 11.67° C | 44% | 1006.1 hPa | 0 mm | - | 236 W/m² | - |
| 1777834657 | 11.67° C | 41% | 1005.8 hPa | 0 mm | - | 404 W/m² | - |
| 1777834352 | 12.22° C | 42% | 1006 hPa | 0 mm | - | 373 W/m² | - |
| 1777834047 | 11.67° C | 43% | 1005.8 hPa | 0 mm | - | 415 W/m² | - |
| 1777833744 | 11.67° C | 43% | 1005.9 hPa | 0 mm | - | 455 W/m² | - |
| 1777833440 | 11.67° C | 44% | 1005.9 hPa | 0 mm | - | 439 W/m² | - |
| 1777833138 | 11.11° C | 46% | 1006 hPa | 0 mm | - | 536 W/m² | - |
| 1777832836 | 10.56° C | 48% | 1006.2 hPa | 0 mm | - | 292 W/m² | - |
| 1777832534 | 10.56° C | 49% | 1006 hPa | 0 mm | - | 195 W/m² | - |
| 1777832230 | 10.56° C | 50% | 1006 hPa | 0 mm | - | 194 W/m² | - |
| 1777831927 | 10.56° C | 50% | 1006 hPa | 0 mm | - | 254 W/m² | - |
| 1777831624 | 10.56° C | 51% | 1006.2 hPa | 0 mm | - | 314 W/m² | - |
| 1777831322 | 10.56° C | 52% | 1006.1 hPa | 0 mm | - | 333 W/m² | - |
| 1777831018 | 10.56° C | 54% | 1006 hPa | 0 mm | - | 262 W/m² | - |
| 1777830717 | 10° C | 55% | 1005.9 hPa | 0 mm | - | 191 W/m² | - |
| 1777830412 | 10° C | 54% | 1006.1 hPa | 0 mm | - | 141 W/m² | - |
| 1777830110 | 10.56° C | 54% | 1005.9 hPa | 0 mm | - | 74 W/m² | - |
| 1777829805 | 10.56° C | 55% | 1005.7 hPa | 0 mm | - | 88 W/m² | - |
| 1777829501 | 10.56° C | 55% | 1005.8 hPa | 0 mm | - | 140 W/m² | - |
| 1777829198 | 10.56° C | 56% | 1005.7 hPa | 0 mm | - | 216 W/m² | - |
| 1777828895 | 10° C | 57% | 1005.9 hPa | 0 mm | - | 314 W/m² | - |
| 1777828592 | 10° C | 57% | 1006 hPa | 0 mm | - | 234 W/m² | - |
| 1777828289 | 9.44° C | 58% | 1005.9 hPa | 0 mm | - | 185 W/m² | - |
* Rain latest hour (hover to see other rain measurements)
** Current wind speed in m/s (hover to see current wind gust speed)